Time,TemperatureF,DewpointF,PressureIn,WindDirection,WindDirectionDegrees,WindSpeedMPH,WindSpeedGustMPH,Humidity,HourlyPrecipIn,Conditions,Clouds,dailyrainin,SoftwareType,DateUTC
2013-01-21 00:00:00,-5.3,-12.8,29.97,WSW,248,2.8,6.7,69,0.00,,SKC,0.00,VWS V14.01,2013-01-21 06:00:00,
2013-01-21 00:20:00,-6.0,-13.5,29.97,WSW,248,1.8,7.0,69,0.00,,SKC,0.00,VWS V14.01,2013-01-21 06:20:00,
2013-01-21 00:40:00,-6.5,-14.0,29.97,NNW,338,3.6,10.2,69,0.00,,SKC,0.00,VWS V14.01,2013-01-21 06:40:00,
2013-01-21 01:00:00,-7.1,-14.5,29.97,SSW,202,1.5,8.2,69,0.00,,SKC,0.00,VWS V14.01,2013-01-21 07:00:00,
2013-01-21 01:20:00,-7.6,-15.1,29.97,WSW,248,0.0,9.4,69,0.00,,SKC,0.00,VWS V14.01,2013-01-21 07:20:00,
2013-01-21 01:40:00,-8.0,-15.4,29.97,WNW,292,3.6,8.6,69,0.00,,SKC,0.00,VWS V14.01,2013-01-21 07:40:00,
2013-01-21 02:00:00,-8.9,-16.3,29.97,SSW,202,2.3,7.0,69,0.00,,SKC,0.00,VWS V14.01,2013-01-21 08:00:00,
2013-01-21 02:20:00,-9.4,-16.8,29.97,SW,225,1.0,6.3,69,0.00,,SKC,0.00,VWS V14.01,2013-01-21 08:20:00,
2013-01-21 02:40:00,-9.9,-17.3,29.97,NNE,22,2.8,8.2,69,0.00,,SKC,0.00,VWS V14.01,2013-01-21 08:40:00,
2013-01-21 02:59:00,-10.5,-17.8,29.97,WSW,248,1.5,7.4,69,0.00,,SKC,0.00,VWS V14.01,2013-01-21 08:59:00,
2013-01-21 03:00:00,-10.5,-17.8,29.97,WSW,248,1.5,7.4,69,0.00,,SKC,0.00,VWS V14.01,2013-01-21 09:00:00,
2013-01-21 03:20:00,-11.2,-18.5,29.97,SSW,202,1.5,10.6,69,0.00,,SKC,0.00,VWS V14.01,2013-01-21 09:20:00,
2013-01-21 03:39:00,-11.7,-19.0,29.97,SSW,202,1.3,9.4,69,0.00,,SKC,0.00,VWS V14.01,2013-01-21 09:39:00,
2013-01-21 03:40:00,-11.7,-19.0,29.97,SSW,202,1.3,9.4,69,0.00,,SKC,0.00,VWS V14.01,2013-01-21 09:40:00,
2013-01-21 04:00:00,-12.1,-19.4,29.97,WSW,248,1.3,8.2,69,0.00,,SKC,0.00,VWS V14.01,2013-01-21 10:00:00,
2013-01-21 04:20:00,-12.8,-20.1,29.97,WNW,292,2.3,10.6,69,0.00,,SKC,0.00,VWS V14.01,2013-01-21 10:20:00,
2013-01-21 04:40:00,-13.2,-20.4,29.97,NNW,338,1.8,7.4,69,0.00,,SKC,0.00,VWS V14.01,2013-01-21 10:40:00,
2013-01-21 05:00:00,-13.2,-20.4,29.97,SSW,202,1.5,5.9,69,0.00,,SKC,0.00,VWS V14.01,2013-01-21 11:00:00,
2013-01-21 05:19:00,-13.9,-21.1,29.97,WSW,248,1.5,10.2,69,0.00,,SKC,0.00,VWS V14.01,2013-01-21 11:19:00,
2013-01-21 05:20:00,-13.9,-21.1,29.97,WSW,248,1.5,10.2,69,0.00,,SKC,0.00,VWS V14.01,2013-01-21 11:20:00,
2013-01-21 05:40:00,-14.4,-21.6,29.97,WNW,292,1.8,7.0,69,0.00,,SKC,0.00,VWS V14.01,2013-01-21 11:40:00,
2013-01-21 06:00:00,-14.3,-21.5,29.94,SSW,202,1.5,4.7,69,0.00,,SKC,0.00,VWS V14.01,2013-01-21 12:00:00,
2013-01-21 06:20:00,-14.4,-21.6,29.97,WSW,248,1.5,6.7,69,0.00,,SKC,0.00,VWS V14.01,2013-01-21 12:20:00,
2013-01-21 06:40:00,-14.8,-22.0,29.94,SSW,202,2.6,6.3,69,0.00,,SKC,0.00,VWS V14.01,2013-01-21 12:40:00,
2013-01-21 07:00:00,-15.3,-22.5,29.97,WSW,248,0.0,6.7,69,0.00,,SKC,0.00,VWS V14.01,2013-01-21 13:00:00,
2013-01-21 07:20:00,-15.3,-22.5,29.97,WSW,248,2.3,7.0,69,0.00,,SKC,0.00,VWS V14.01,2013-01-21 13:20:00,
2013-01-21 07:40:00,-15.7,-22.9,29.97,SSW,202,3.6,9.4,69,0.00,,SKC,0.00,VWS V14.01,2013-01-21 13:40:00,
2013-01-21 08:00:00,-15.7,-22.9,29.97,SSW,202,1.3,8.2,69,0.00,,SKC,0.00,VWS V14.01,2013-01-21 14:00:00,
2013-01-21 08:20:00,-15.7,-22.9,29.97,WSW,248,1.8,11.4,69,0.00,,SKC,0.00,VWS V14.01,2013-01-21 14:20:00,
2013-01-21 08:40:00,-15.5,-22.7,30.00,WSW,248,3.3,11.7,69,0.00,,SKC,0.00,VWS V14.01,2013-01-21 14:40:00,
2013-01-21 09:00:00,-15.5,-22.7,30.00,NW,315,2.3,11.0,69,0.00,,SKC,0.00,VWS V14.01,2013-01-21 15:00:00,
2013-01-21 09:20:00,-14.8,-22.0,30.00,NNW,338,4.6,11.0,69,0.00,,SKC,0.00,VWS V14.01,2013-01-21 15:20:00,
2013-01-21 09:40:00,-14.4,-21.6,30.00,West,270,3.6,11.0,69,0.00,,SKC,0.00,VWS V14.01,2013-01-21 15:40:00,
2013-01-21 10:00:00,-13.5,-20.8,30.00,WNW,292,5.7,14.9,69,0.00,,SKC,0.00,VWS V14.01,2013-01-21 16:00:00,
2013-01-21 10:20:00,-12.8,-20.1,30.00,SSW,202,4.6,9.8,69,0.00,,SKC,0.00,VWS V14.01,2013-01-21 16:20:00,
2013-01-21 10:40:00,-12.8,-20.1,30.00,West,270,4.1,13.3,69,0.00,,SKC,0.00,VWS V14.01,2013-01-21 16:40:00,
2013-01-21 10:59:00,-12.6,-19.9,30.03,SSE,158,2.6,13.3,69,0.00,,SKC,0.00,VWS V14.01,2013-01-21 16:59:00,
2013-01-21 11:00:00,-12.6,-19.9,30.03,SSE,158,2.6,13.3,69,0.00,,SKC,0.00,VWS V14.01,2013-01-21 17:00:00,
2013-01-21 11:20:00,-11.0,-18.3,30.00,WSW,248,1.8,15.3,69,0.00,,SKC,0.00,VWS V14.01,2013-01-21 17:20:00,
2013-01-21 11:40:00,-11.7,-19.0,30.00,WNW,292,4.6,11.0,69,0.00,,SKC,0.00,VWS V14.01,2013-01-21 17:40:00,
2013-01-21 12:00:00,-10.8,-18.2,30.00,WSW,248,3.1,11.4,69,0.00,,SKC,0.00,VWS V14.01,2013-01-21 18:00:00,
2013-01-21 12:20:00,-9.4,-16.8,29.97,WNW,292,1.8,10.2,69,0.00,,SKC,0.00,VWS V14.01,2013-01-21 18:20:00,
2013-01-21 12:40:00,-9.0,-16.4,29.97,SSW,202,2.3,14.1,69,0.00,,SKC,0.00,VWS V14.01,2013-01-21 18:40:00,
2013-01-21 13:00:00,-10.1,-17.5,29.97,NNW,338,5.7,12.5,69,0.00,,SKC,0.00,VWS V14.01,2013-01-21 19:00:00,
2013-01-21 13:20:00,-8.0,-15.4,29.97,WSW,248,1.8,14.1,69,0.00,,SKC,0.00,VWS V14.01,2013-01-21 19:20:00,
2013-01-21 13:40:00,-8.0,-15.4,29.97,NNW,338,3.3,14.1,69,0.00,,SKC,0.00,VWS V14.01,2013-01-21 19:40:00,
2013-01-21 14:00:00,-8.5,-15.9,29.97,NNW,338,2.3,11.4,69,0.00,,SKC,0.00,VWS V14.01,2013-01-21 20:00:00,
2013-01-21 14:20:00,-7.2,-14.7,29.97,NNW,338,4.4,9.4,69,0.00,,SKC,0.00,VWS V14.01,2013-01-21 20:20:00,
2013-01-21 14:40:00,-6.7,-14.2,29.97,SSW,202,1.3,13.3,69,0.00,,SKC,0.00,VWS V14.01,2013-01-21 20:40:00,
2013-01-21 15:00:00,-7.1,-14.5,29.97,NW,315,1.8,8.2,69,0.00,,SKC,0.00,VWS V14.01,2013-01-21 21:00:00,
2013-01-21 15:20:00,-8.0,-15.4,29.97,WNW,292,3.6,10.6,69,0.00,,SKC,0.00,VWS V14.01,2013-01-21 21:20:00,
2013-01-21 15:40:00,-7.8,-15.2,29.97,SSW,202,2.8,10.2,69,0.00,,SKC,0.00,VWS V14.01,2013-01-21 21:40:00,
2013-01-21 16:00:00,-8.0,-15.4,29.97,WNW,292,7.2,11.0,69,0.00,,SKC,0.00,VWS V14.01,2013-01-21 22:00:00,
2013-01-21 16:20:00,-8.0,-15.4,29.97,SSW,202,3.3,11.0,69,0.00,,SKC,0.00,VWS V14.01,2013-01-21 22:20:00,
2013-01-21 16:40:00,-8.9,-16.3,29.97,West,270,2.6,10.2,69,0.00,,SKC,0.00,VWS V14.01,2013-01-21 22:40:00,
2013-01-21 17:00:00,-9.4,-16.8,29.97,SW,225,0.0,5.9,69,0.00,,SKC,0.00,VWS V14.01,2013-01-21 23:00:00,
2013-01-21 17:20:00,-9.8,-17.1,29.97,SW,225,1.8,6.3,69,0.00,,SKC,0.00,VWS V14.01,2013-01-21 23:20:00,
2013-01-21 17:40:00,-10.3,-17.6,29.97,SSW,202,1.0,3.9,69,0.00,,SKC,0.00,VWS V14.01,2013-01-21 23:40:00,
2013-01-21 18:00:00,-10.8,-18.2,29.97,SSW,202,0.0,2.3,69,0.00,,SKC,0.00,VWS V14.01,2013-01-22 00:00:00,
2013-01-21 18:20:00,-11.6,-18.9,29.97,SSW,202,0.0,2.3,69,0.00,,SKC,0.00,VWS V14.01,2013-01-22 00:20:00,
2013-01-21 18:40:00,-11.7,-19.0,29.97,SSW,202,0.0,2.7,69,0.00,,SKC,0.00,VWS V14.01,2013-01-22 00:40:00,
2013-01-21 19:00:00,-11.9,-19.2,29.97,WSW,248,1.5,3.9,69,0.00,,SKC,0.00,VWS V14.01,2013-01-22 01:00:00,
2013-01-21 19:20:00,-12.8,-20.1,30.00,SSW,202,0.0,2.3,69,0.00,,SKC,0.00,VWS V14.01,2013-01-22 01:20:00,
2013-01-21 19:40:00,-13.7,-21.0,29.97,SSW,202,0.0,0.0,69,0.00,,SKC,0.00,VWS V14.01,2013-01-22 01:40:00,
2013-01-21 20:00:00,-14.4,-21.6,29.97,South,180,0.0,2.3,69,0.00,,SKC,0.00,VWS V14.01,2013-01-22 02:00:00,
2013-01-21 20:20:00,-14.4,-21.6,29.97,South,180,0.0,0.0,69,0.00,,SKC,0.00,VWS V14.01,2013-01-22 02:20:00,
2013-01-21 20:40:00,-14.6,-21.8,30.00,South,180,0.0,0.0,69,0.00,,SKC,0.00,VWS V14.01,2013-01-22 02:40:00,
2013-01-21 21:00:00,-15.2,-22.3,30.00,South,180,0.0,0.0,69,0.00,,SKC,0.00,VWS V14.01,2013-01-22 03:00:00,
2013-01-21 21:20:00,-15.5,-22.7,30.00,South,180,0.0,0.0,69,0.00,,SKC,0.00,VWS V14.01,2013-01-22 03:20:00,
2013-01-21 21:40:00,-15.9,-23.0,30.00,South,180,0.0,0.0,69,0.00,,SKC,0.00,VWS V14.01,2013-01-22 03:40:00,
2013-01-21 22:00:00,-16.1,-23.2,30.00,South,180,0.0,0.0,69,0.00,,SKC,0.00,VWS V14.01,2013-01-22 04:00:00,
2013-01-21 22:20:00,-16.4,-23.5,30.00,South,180,0.0,0.0,69,0.00,,SKC,0.00,VWS V14.01,2013-01-22 04:20:00,
2013-01-21 22:40:00,-16.4,-23.5,30.00,ESE,112,0.0,0.0,69,0.00,,SKC,0.00,VWS V14.01,2013-01-22 04:40:00,
2013-01-21 23:00:00,-16.8,-23.9,30.00,ESE,112,0.0,0.0,69,0.00,,SKC,0.00,VWS V14.01,2013-01-22 05:00:00,
2013-01-21 23:20:00,-17.1,-24.2,30.00,SSE,158,0.0,0.0,69,0.00,,SKC,0.00,VWS V14.01,2013-01-22 05:20:00,
2013-01-21 23:40:00,-17.3,-24.4,30.00,SSE,158,0.0,0.0,69,0.00,,SKC,0.00,VWS V14.01,2013-01-22 05:40:00,